| time (UTC) | temp F | wind direction | speed MPH | gust MPH | rain 1hr in | rain 24hr in | rain mn in | humidity % | barometer mb |
| 20260831131534 | 70 | 126 | 1.0 | 3.0 | 0.00 | 0.00 | 0.00 | 65 | 1017.6 |
| 20260831130021 | 70 | 128 | 2.0 | 4.0 | 0.00 | 0.00 | 0.00 | 65 | 1017.8 |
| 20260831124525 | 69 | 134 | 0.0 | 3.0 | 0.00 | 0.00 | 0.00 | 65 | 1018.0 |
| 20260831123015 | 69 | 134 | 0.0 | 2.0 | 0.00 | 0.00 | 0.00 | 65 | 1017.7 |
| 20260831121515 | 69 | 134 | 0.0 | 3.0 | 0.00 | 0.00 | 0.00 | 65 | 1017.8 |
| 20260831120011 | 69 | 134 | 1.0 | 3.0 | 0.00 | 0.00 | 0.00 | 65 | 1017.9 |
| 20260831114512 | 68 | 134 | 1.0 | 3.0 | 0.00 | 0.00 | 0.00 | 65 | 1017.7 |
| 20260831113008 | 68 | 134 | 1.0 | 3.0 | 0.00 | 0.00 | 0.00 | 65 | 1017.8 |
| 20260831111505 | 68 | 135 | 2.0 | 3.0 | 0.00 | 0.00 | 0.00 | 65 | 1017.6 |
| 20260831110003 | 69 | 135 | 1.0 | 3.0 | 0.00 | 0.00 | 0.00 | 64 | 1017.5 |
| 20260831104510 | 69 | 135 | 0.0 | 0.0 | 0.00 | 0.00 | 0.00 | 64 | 1017.3 |
| 20260831103001 | 69 | 135 | 0.0 | 0.0 | 0.00 | 0.00 | 0.00 | 64 | 1017.2 |
| 20260831101502 | 69 | 135 | 0.0 | 3.0 | 0.00 | 0.00 | 0.00 | 64 | 1016.9 |
| 20260831100003 | 69 | 135 | 0.0 | 3.0 | 0.00 | 0.00 | 0.00 | 64 | 1017.1 |
| 20260831094600 | 69 | 136 | 1.0 | 3.0 | 0.00 | 0.00 | 0.00 | 64 | 1017.0 |
| 20260831093058 | 69 | 135 | 1.0 | 3.0 | 0.00 | 0.00 | 0.00 | 64 | 1016.9 |
| 20260831091609 | 69 | 135 | 0.0 | 2.0 | 0.00 | 0.00 | 0.00 | 64 | 1016.9 |
| 20260831090058 | 69 | 135 | 1.0 | 3.0 | 0.00 | 0.00 | 0.00 | 64 | 1017.1 |
| 20260831084557 | 69 | 135 | 0.0 | 2.0 | 0.00 | 0.00 | 0.00 | 63 | 1017.1 |
| 20260831083055 | 69 | 134 | 2.0 | 4.0 | 0.00 | 0.00 | 0.00 | 63 | 1016.9 |
| 20260831081555 | 69 | 107 | 1.0 | 3.0 | 0.00 | 0.00 | 0.00 | 63 | 1017.1 |
| 20260831080054 | 69 | 107 | 1.0 | 4.0 | 0.00 | 0.00 | 0.00 | 63 | 1017.0 |
| 20260831074552 | 69 | 107 | 0.0 | 3.0 | 0.00 | 0.00 | 0.00 | 63 | 1017.2 |
| 20260831073058 | 69 | 107 | 2.0 | 3.0 | 0.00 | 0.00 | 0.00 | 63 | 1017.3 |
| 20260831071551 | 69 | 107 | 0.0 | 3.0 | 0.00 | 0.00 | 0.00 | 63 | 1017.2 |
| 20260831070050 | 69 | 109 | 2.0 | 6.0 | 0.00 | 0.00 | 0.00 | 62 | 1017.1 |
| 20260831064547 | 69 | 124 | 0.0 | 3.0 | 0.00 | 0.00 | 0.00 | 62 | 1017.3 |
| 20260831063046 | 70 | 125 | 1.0 | 4.0 | 0.00 | 0.00 | 0.00 | 62 | 1017.5 |
| 20260831061545 | 70 | 89 | 1.0 | 6.0 | 0.00 | 0.00 | 0.00 | 62 | 1017.7 |
| 20260831060044 | 70 | 76 | 1.0 | 6.0 | 0.00 | 0.00 | 0.00 | 62 | 1017.7 |
| 20260831054543 | 70 | 105 | 1.0 | 4.0 | 0.00 | 0.00 | 0.00 | 62 | 1017.9 |
| 20260831053040 | 70 | 109 | 2.0 | 4.0 | 0.00 | 0.00 | 0.00 | 62 | 1018.1 |
| 20260831051549 | 70 | 111 | 0.0 | 4.0 | 0.00 | 0.00 | 0.00 | 62 | 1017.9 |
| 20260831050040 | 70 | 123 | 2.0 | 5.0 | 0.00 | 0.00 | 0.00 | 62 | 1018.0 |
| 20260831044538 | 70 | 123 | 1.0 | 3.0 | 0.00 | 0.00 | 0.00 | 62 | 1018.1 |
| 20260831043035 | 70 | 121 | 1.0 | 6.0 | 0.00 | 0.00 | 0.00 | 62 | 1018.2 |
| 20260831041615 | 70 | 130 | 1.0 | 5.0 | 0.00 | 0.00 | 0.00 | 62 | 1018.1 |
| 20260831040032 | 70 | 107 | 0.0 | 4.0 | 0.00 | 0.00 | 0.00 | 63 | 1018.1 |
| 20260831034531 | 70 | 82 | 2.0 | 6.0 | 0.00 | 0.00 | 0.00 | 63 | 1018.1 |
| 20260831033031 | 71 | 80 | 2.0 | 5.0 | 0.00 | 0.00 | 0.00 | 63 | 1018.4 |
| 20260831031534 | 71 | 45 | 2.0 | 5.0 | 0.00 | 0.00 | 0.00 | 63 | 1018.9 |
| 20260831030033 | 71 | 53 | 2.0 | 5.0 | 0.00 | 0.00 | 0.00 | 63 | 1019.1 |
| 20260831024538 | 71 | 355 | 1.0 | 5.0 | 0.00 | 0.00 | 0.00 | 62 | 1019.4 |
| 20260831023029 | 72 | 331 | 1.0 | 5.0 | 0.00 | 0.00 | 0.00 | 62 | 1019.5 |
| 20260831021537 | 72 | 15 | 1.0 | 3.0 | 0.00 | 0.00 | 0.00 | 61 | 1019.3 |
| 20260831020029 | 72 | 34 | 0.0 | 4.0 | 0.00 | 0.00 | 0.00 | 60 | 1019.0 |
| 20260831014527 | 72 | 38 | 0.0 | 2.0 | 0.00 | 0.00 | 0.00 | 59 | 1018.6 |
| 20260831013028 | 72 | 38 | 0.0 | 3.0 | 0.00 | 0.00 | 0.00 | 59 | 1018.4 |
| 20260831011625 | 73 | 73 | 1.0 | 3.0 | 0.00 | 0.00 | 0.00 | 59 | 1017.8 |
| 20260831010027 | 73 | 63 | 1.0 | 3.0 | 0.00 | 0.00 | 0.00 | 58 | 1017.5 |
| 20260831004525 | 73 | 53 | 1.0 | 5.0 | 0.00 | 0.00 | 0.00 | 57 | 1017.4 |
| 20260831003031 | 73 | 107 | 2.0 | 4.0 | 0.00 | 0.00 | 0.00 | 57 | 1017.1 |
| 20260831001523 | 74 | 69 | 1.0 | 3.0 | 0.00 | 0.00 | 0.00 | 56 | 1017.3 |
| 20260831000028 | 74 | 69 | 2.0 | 4.0 | 0.00 | 0.00 | 0.00 | 56 | 1017.0 |
| 20260830234523 | 74 | 68 | 0.0 | 2.0 | 0.00 | 0.00 | 0.00 | 55 | 1016.8 |
| 20260830233024 | 75 | 69 | 0.0 | 3.0 | 0.00 | 0.00 | 0.00 | 55 | 1017.0 |
| 20260830231520 | 75 | 69 | 1.0 | 4.0 | 0.00 | 0.00 | 0.00 | 54 | 1016.9 |
| 20260830230018 | 76 | 49 | 0.0 | 3.0 | 0.00 | 0.00 | 0.00 | 54 | 1017.1 |
| 20260830224522 | 77 | 47 | 1.0 | 4.0 | 0.00 | 0.00 | 0.00 | 53 | 1016.9 |
| 20260830223017 | 77 | 36 | 1.0 | 3.0 | 0.00 | 0.00 | 0.00 | 52 | 1016.9 |
| 20260830221517 | 78 | 36 | 0.0 | 3.0 | 0.00 | 0.00 | 0.00 | 51 | 1016.8 |
| 20260830220018 | 77 | 36 | 1.0 | 3.0 | 0.00 | 0.00 | 0.00 | 52 | 1016.9 |
| 20260830214520 | 78 | 34 | 1.0 | 4.0 | 0.00 | 0.00 | 0.00 | 52 | 1017.0 |
| 20260830213015 | 78 | 24 | 1.0 | 4.0 | 0.00 | 0.00 | 0.00 | 51 | 1017.0 |
| 20260830211515 | 78 | 24 | 1.0 | 2.0 | 0.00 | 0.00 | 0.00 | 53 | 1016.8 |
| 20260830210013 | 78 | 340 | 1.0 | 5.0 | 0.00 | 0.00 | 0.00 | 53 | 1017.2 |
| 20260830204513 | 78 | 9 | 1.0 | 6.0 | 0.00 | 0.00 | 0.00 | 53 | 1017.1 |
| 20260830203012 | 78 | 360 | 1.0 | 6.0 | 0.00 | 0.00 | 0.00 | 53 | 1017.3 |
| 20260830201513 | 78 | 18 | 2.0 | 6.0 | 0.00 | 0.00 | 0.00 | 53 | 1017.3 |
| 20260830200011 | 79 | 347 | 2.0 | 9.0 | 0.00 | 0.00 | 0.00 | 53 | 1017.3 |
| 20260830194510 | 80 | 311 | 5.0 | 11.0 | 0.00 | 0.00 | 0.00 | 49 | 1017.4 |
| 20260830193011 | 81 | 332 | 3.0 | 8.0 | 0.00 | 0.00 | 0.00 | 47 | 1017.6 |
| 20260830191508 | 82 | 22 | 1.0 | 7.0 | 0.00 | 0.00 | 0.00 | 45 | 1017.6 |
| 20260830190010 | 83 | 9 | 2.0 | 6.0 | 0.00 | 0.00 | 0.00 | 43 | 1017.6 |
| 20260830184504 | 83 | 321 | 2.0 | 8.0 | 0.00 | 0.00 | 0.00 | 43 | 1017.9 |
| 20260830183002 | 83 | 295 | 1.0 | 9.0 | 0.00 | 0.00 | 0.00 | 43 | 1018.2 |
| 20260830181502 | 82 | 242 | 6.0 | 13.0 | 0.00 | 0.00 | 0.00 | 43 | 1018.4 |
| 20260830180203 | 83 | 350 | 2.0 | 6.0 | 0.00 | 0.00 | 0.00 | 44 | 1018.3 |
| 20260830174603 | 83 | 327 | 5.0 | 10.0 | 0.00 | 0.00 | 0.00 | 43 | 1018.5 |
| 20260830173102 | 84 | 325 | 3.0 | 10.0 | 0.00 | 0.00 | 0.00 | 41 | 1018.7 |
| 20260830171629 | 82 | 261 | 7.0 | 12.0 | 0.00 | 0.00 | 0.00 | 42 | 1018.9 |
| 20260830170052 | 83 | 338 | 2.0 | 10.0 | 0.00 | 0.00 | 0.00 | 44 | 1019.1 |
| 20260830164551 | 81 | 240 | 7.0 | 12.0 | 0.00 | 0.00 | 0.00 | 46 | 1019.0 |
| 20260830163053 | 82 | 292 | 7.0 | 11.0 | 0.00 | 0.00 | 0.00 | 45 | 1018.9 |
| 20260830161550 | 82 | 254 | 3.0 | 9.0 | 0.00 | 0.00 | 0.00 | 44 | 1019.0 |
| 20260830160047 | 81 | 182 | 2.0 | 10.0 | 0.00 | 0.00 | 0.00 | 48 | 1019.2 |
| 20260830154546 | 81 | 241 | 5.0 | 9.0 | 0.00 | 0.00 | 0.00 | 48 | 1019.3 |
| 20260830153043 | 80 | 269 | 2.0 | 7.0 | 0.00 | 0.00 | 0.00 | 52 | 1019.4 |
| 20260830151545 | 79 | 222 | 1.0 | 7.0 | 0.00 | 0.00 | 0.00 | 54 | 1019.5 |
| 20260830150039 | 78 | 271 | 2.0 | 7.0 | 0.00 | 0.00 | 0.00 | 56 | 1019.5 |
| 20260830144544 | 77 | 134 | 2.0 | 5.0 | 0.00 | 0.00 | 0.00 | 56 | 1019.1 |
| 20260830143035 | 75 | 255 | 4.0 | 7.0 | 0.00 | 0.00 | 0.00 | 58 | 1019.2 |
| 20260830141530 | 73 | 207 | 2.0 | 5.0 | 0.00 | 0.00 | 0.00 | 59 | 1019.2 |
| 20260830140025 | 73 | 228 | 1.0 | 5.0 | 0.00 | 0.00 | 0.00 | 59 | 1019.0 |
| 20260830134535 | 73 | 232 | 1.0 | 5.0 | 0.00 | 0.00 | 0.00 | 59 | 1018.8 |
| 20260830133021 | 72 | 173 | 3.0 | 5.0 | 0.00 | 0.00 | 0.00 | 58 | 1018.8 |